| time (UTC) | temp C | wind direction | speed KPH | gust KPH | rain 1hr cm | rain 24hr cm | rain mn cm | humidity % | barometer mb |
| 20260506084552 | 8 | 19 | 9.7 | 24.1 | 0.00 | 2.29 | 0.05 | 93 | 1013.8 |
| 20260506083053 | 9 | 341 | 16.1 | 33.8 | 0.00 | 2.29 | 0.05 | 93 | 1013.7 |
| 20260506081600 | 9 | 351 | 16.1 | 30.6 | 0.00 | 2.29 | 0.05 | 94 | 1013.5 |
| 20260506073038 | 9 | 330 | 9.7 | 20.9 | 0.00 | 2.29 | 0.05 | 95 | 1013.1 |
| 20260506071539 | 9 | 45 | 6.4 | 14.5 | 0.00 | 2.29 | 0.05 | 95 | 1013.1 |
| 20260506061531 | 9 | 338 | 17.7 | 30.6 | 0.03 | 2.29 | 0.05 | 96 | 1013.7 |
| 20260506044515 | 10 | 5 | 11.3 | 25.7 | 0.13 | 2.18 | 2.18 | 96 | 1011.9 |
| 20260506043013 | 10 | 30 | 11.3 | 25.7 | 0.30 | 2.11 | 2.11 | 95 | 1011.9 |
| 20260506041512 | 10 | 5 | 11.3 | 33.8 | 0.33 | 2.11 | 2.11 | 96 | 1011.7 |
| 20260506040010 | 10 | 52 | 12.9 | 25.7 | 0.33 | 2.11 | 2.11 | 95 | 1011.6 |
| 20260506034508 | 10 | 53 | 8.0 | 25.7 | 0.28 | 2.06 | 2.06 | 95 | 1011.4 |
| 20260506033006 | 11 | 45 | 11.3 | 30.6 | 0.00 | 1.78 | 1.78 | 95 | 1012.0 |
| 20260506031615 | 11 | 360 | 20.9 | 35.4 | 0.00 | 1.78 | 1.78 | 95 | 1011.6 |
| 20260506030100 | 11 | 347 | 17.7 | 30.6 | 0.00 | 1.78 | 1.78 | 96 | 1011.4 |
| 20260506024559 | 11 | 336 | 16.1 | 32.2 | 0.03 | 1.78 | 1.78 | 96 | 1011.2 |
| 20260506023101 | 11 | 329 | 14.5 | 30.6 | 0.08 | 1.78 | 1.78 | 96 | 1011.3 |
| 20260506021655 | 12 | 348 | 16.1 | 29.0 | 0.13 | 1.78 | 1.78 | 97 | 1011.0 |
| 20260506020051 | 12 | 326 | 22.5 | 29.0 | 0.15 | 1.78 | 1.78 | 97 | 1010.7 |
| 20260506014549 | 12 | 5 | 17.7 | 29.0 | 0.20 | 1.75 | 1.75 | 97 | 1010.1 |
| 20260506013050 | 12 | 360 | 16.1 | 29.0 | 0.20 | 1.70 | 1.70 | 97 | 1009.7 |
| 20260506011545 | 12 | 5 | 14.5 | 25.7 | 0.15 | 1.65 | 1.65 | 97 | 1009.0 |
| 20260506010054 | 13 | 348 | 12.9 | 24.1 | 0.13 | 1.63 | 1.63 | 97 | 1008.7 |
| 20260506004541 | 13 | 355 | 20.9 | 32.2 | 0.08 | 1.55 | 1.55 | 97 | 1008.8 |
| 20260506003037 | 14 | 346 | 12.9 | 24.1 | 0.08 | 1.50 | 1.50 | 96 | 1008.5 |
| 20260506001534 | 18 | 317 | 11.3 | 19.3 | 0.13 | 1.50 | 1.50 | 98 | 1008.2 |
| 20260506000033 | 18 | 193 | 14.5 | 25.7 | 0.15 | 1.50 | 1.50 | 98 | 1007.8 |
| 20260505234534 | 18 | 175 | 16.1 | 24.1 | 0.20 | 1.45 | 1.45 | 98 | 1008.3 |
| 20260505233029 | 18 | 201 | 16.1 | 27.4 | 0.18 | 1.42 | 1.42 | 98 | 1008.6 |
| 20260505231528 | 18 | 179 | 17.7 | 27.4 | 0.20 | 1.37 | 1.37 | 98 | 1008.5 |
| 20260505230037 | 18 | 184 | 16.1 | 24.1 | 0.25 | 1.35 | 1.35 | 97 | 1008.4 |
| 20260505224525 | 17 | 180 | 9.7 | 16.1 | 0.23 | 1.27 | 1.27 | 97 | 1008.4 |
| 20260505223025 | 17 | 178 | 9.7 | 19.3 | 0.25 | 1.24 | 1.24 | 97 | 1008.6 |
| 20260505221524 | 17 | 173 | 11.3 | 20.9 | 0.23 | 1.17 | 1.17 | 97 | 1008.8 |
| 20260505220026 | 17 | 180 | 11.3 | 22.5 | 0.23 | 1.09 | 1.09 | 97 | 1008.7 |
| 20260505214522 | 17 | 177 | 11.3 | 19.3 | 0.25 | 1.04 | 1.04 | 97 | 1008.7 |
| 20260505213026 | 17 | 180 | 9.7 | 17.7 | 0.25 | 0.99 | 0.99 | 96 | 1009.0 |
| 20260505211521 | 17 | 185 | 12.9 | 19.3 | 0.23 | 0.94 | 0.94 | 96 | 1009.2 |
| 20260505210019 | 17 | 179 | 12.9 | 22.5 | 0.18 | 0.86 | 0.86 | 96 | 1009.3 |
| 20260505204518 | 17 | 182 | 17.7 | 25.7 | 0.13 | 0.79 | 0.79 | 95 | 1009.3 |
| 20260505203027 | 17 | 179 | 17.7 | 29.0 | 0.08 | 0.71 | 0.71 | 95 | 1009.3 |
| 20260505201518 | 17 | 185 | 17.7 | 29.0 | 0.08 | 0.71 | 0.71 | 95 | 1009.4 |
| 20260505200016 | 17 | 227 | 17.7 | 35.4 | 0.05 | 0.69 | 0.69 | 94 | 1009.7 |
| 20260505194516 | 17 | 189 | 19.3 | 30.6 | 0.05 | 0.66 | 0.66 | 95 | 1009.7 |
| 20260505193013 | 17 | 200 | 14.5 | 27.4 | 0.08 | 0.66 | 0.66 | 96 | 1009.7 |
| 20260505191513 | 17 | 204 | 16.1 | 33.8 | 0.08 | 0.64 | 0.64 | 96 | 1009.9 |
| 20260505190015 | 17 | 183 | 16.1 | 29.0 | 0.08 | 0.64 | 0.64 | 95 | 1009.9 |
| 20260505184511 | 17 | 194 | 19.3 | 35.4 | 0.05 | 0.61 | 0.61 | 95 | 1009.8 |
| 20260505183010 | 17 | 187 | 22.5 | 30.6 | 0.03 | 0.58 | 0.58 | 95 | 1009.8 |
| 20260505181508 | 17 | 184 | 25.7 | 40.2 | 0.00 | 0.56 | 0.56 | 94 | 1009.9 |
| 20260505180008 | 17 | 184 | 24.1 | 35.4 | 0.00 | 0.56 | 0.56 | 93 | 1010.2 |
| 20260505174507 | 17 | 192 | 25.7 | 38.6 | 0.00 | 0.56 | 0.56 | 92 | 1010.2 |
| 20260505173007 | 17 | 181 | 17.7 | 32.2 | 0.00 | 0.56 | 0.56 | 92 | 1010.4 |
| 20260505171505 | 18 | 195 | 12.9 | 19.3 | 0.00 | 0.56 | 0.56 | 92 | 1010.6 |
| 20260505170009 | 17 | 219 | 12.9 | 24.1 | 0.00 | 0.56 | 0.56 | 93 | 1010.8 |
| 20260505164504 | 17 | 185 | 16.1 | 24.1 | 0.00 | 0.56 | 0.56 | 92 | 1010.8 |
| 20260505163009 | 17 | 174 | 14.5 | 24.1 | 0.00 | 0.56 | 0.56 | 92 | 1010.7 |
| 20260505161503 | 17 | 192 | 16.1 | 20.9 | 0.00 | 0.56 | 0.56 | 93 | 1010.6 |
| 20260505153100 | 17 | 163 | 14.5 | 22.5 | 0.00 | 0.56 | 0.56 | 93 | 1010.8 |
| 20260505151621 | 17 | 205 | 17.7 | 25.7 | 0.00 | 0.56 | 0.56 | 92 | 1010.9 |
| 20260505124551 | 16 | 195 | 16.1 | 27.4 | 0.43 | 0.43 | 0.43 | 92 | 1011.1 |
| 20260505123047 | 16 | 180 | 12.9 | 24.1 | 0.28 | 0.28 | 0.28 | 90 | 1011.1 |
| 20260505121545 | 16 | 188 | 16.1 | 25.7 | 0.10 | 0.10 | 0.10 | 88 | 1010.8 |
| 20260505120100 | 17 | 199 | 14.5 | 24.1 | 0.00 | 0.00 | 0.00 | 82 | 1010.6 |
| 20260505114538 | 17 | 199 | 11.3 | 22.5 | 0.00 | 0.00 | 0.00 | 77 | 1010.2 |
| 20260505113043 | 17 | 202 | 14.5 | 22.5 | 0.00 | 0.00 | 0.00 | 77 | 1010.1 |
| 20260505111538 | 17 | 182 | 14.5 | 24.1 | 0.00 | 0.00 | 0.00 | 76 | 1009.8 |
| 20260505101530 | 17 | 175 | 8.0 | 16.1 | 0.00 | 0.00 | 0.00 | 75 | 1009.8 |
| 20260505100029 | 17 | 174 | 9.7 | 16.1 | 0.00 | 0.00 | 0.00 | 74 | 1009.9 |
| 20260505094527 | 18 | 174 | 12.9 | 19.3 | 0.00 | 0.00 | 0.00 | 73 | 1009.8 |
| 20260505093028 | 18 | 194 | 12.9 | 19.3 | 0.00 | 0.00 | 0.00 | 72 | 1010.0 |
| 20260505091529 | 18 | 207 | 12.9 | 16.1 | 0.00 | 0.00 | 0.00 | 72 | 1010.2 |
| 20260505090037 | 18 | 209 | 11.3 | 16.1 | 0.00 | 0.00 | 0.00 | 71 | 1010.3 |